COSMOS 1275 DEB

Satellite information

Favourite Embed

Satellite Type and Status

DEBRISIN ORBIT

Key statistics

Satellite COSMOS 1275 DEB at a glance.

Uptime

16044

Days in orbit

Revolutions

≈ 14.1

Per day

Orbit

LEO

Low Earth Orbit

Inclination

82.8

Latest

Satellite identification and parameters

Extended collection of information and parameters for COSMOS 1275 DEB.

Object identification

Identified? True

Debris? True

Object name: COSMOS 1275 DEB

International designator: 1981-053AD

Object number (NORAD): 12673

Object ID (CCSDS): 12673

Country: COMMONWEALTH OF INDEPENDENT STATES (CIS)

Current information (Y/N): Y

RCS size: MEDIUM

Orbital parameters

Period: 102.106 minutes

Inclination: 82.8483 deg

SMA: 7236.478 km

Apoapsis: 886.146 km

Periapsis: 830.541 km

RAAN: 105.0051 deg

Eccentricy: 0.003842

Argument of periapsis: 334.7483 deg

Mean anomaly: 53.3189 deg

Mean motion: 14.10301143 rev/day

Mean motion (dot): 0.00002899 rev/day2

B* drag term: 0.0016156 1/REarth

Two-line elements (TLE)

Creation date: May 8, 2025, 3:01 a.m.

Reference frame: TEME

Reference center: EARTH

Epoch: May 7, 2025, 9:34 p.m. UTC

TLE line 0: 0 COSMOS 1275 DEB

TLE line 1: 1 12673U 81053AD 25127.89900288 .00002899 00000-0 16156-2 0 9996

TLE line 2: 2 12673 82.8483 105.0051 0038420 334.7483 53.3189 14.10301143217732

Live tracking on map

Real-time ground track for satellite COSMOS 1275 DEB.

In-orbit conjunctions

A list of the most updated potential collisions computed for object COSMOS 1275 DEB.

Target Orbit TCA Probability of collision Miss distance Type
FENGYUN 1C DEB SSO 2025-01-09 16:52:59 0.0001460373 168.0 (m) DEBRIS
CZ-6A DEB SSO 2024-12-06 09:37:34 0.0001184602 543.0 (m) DEBRIS
FENGYUN 1C DEB SSO 2024-11-28 19:04:44 0.0001259318 95.0 (m) DEBRIS

Associated space launch

Navigation satellite providing location information for the Tsiklon-B navigation system

COSMOS 1275 DEB was lifted into orbit during the mission ‘Kosmos-3M | Parus 27’, on board a Kosmos-3M space rocket.

The launch took place on June 4, 1981, 3:41 p.m. from 132/2.

For more information about the launch, click the button.

Launch to space Kosmos-3M | Parus 27
Kosmos-3M | Parus 27

Agency: N/A

Status: Launch Successful

Launch date: June 4, 1981, 3:41 p.m. UTC

Rocket: Kosmos-3M

Launch pad: 132/2

Location: Plesetsk Cosmodrome, Russian Federation

...

Latest news about this satellite

There are no fresh news available about this satellite. Check back as we update our databases every day.


Newsletter sign-up

Weekly statistics, charts and insights to help you stay on top of the space industry.